Date,TemperatureHighF,TemperatureAvgF,TemperatureLowF,DewpointHighF,DewpointAvgF,DewpointLowF,HumidityHigh,HumidityAvg,HumidityLow,PressureMaxIn,PressureMinIn,WindSpeedMaxMPH,WindSpeedAvgMPH,GustSpeedMaxMPH,PrecipitationSumIn
2013-1-1,28.7,20.0,4.0,24.0,13.1,0.0,94,72,48,29.77,29.56,22,4,23,0.00
2013-1-2,13.6,5.2,-1.1,4.0,-2.3,-6.0,82,65,49,29.95,29.76,24,4,25,0.00
2013-1-3,18.1,7.0,-2.5,4.0,-0.5,-6.0,76,65,51,30.02,29.90,17,4,17,0.00
2013-1-4,28.6,19.7,5.9,26.0,15.7,0.0,88,81,70,29.90,29.68,9,1,9,0.00
2013-1-5,30.6,23.0,10.7,26.0,14.1,4.0,92,67,41,30.25,29.68,25,4,25,0.00
2013-1-6,28.1,18.6,9.3,26.0,16.1,4.0,97,87,69,30.23,29.90,10,2,10,0.01
2013-1-7,19.6,13.3,9.4,21.0,9.5,4.0,97,81,65,30.39,29.95,15,3,19,0.00
2013-1-8,39.6,30.3,13.2,29.0,23.9,8.0,95,76,54,30.33,30.16,9,2,20,0.07
2013-1-9,37.2,33.2,26.2,37.0,28.5,23.0,99,83,63,30.40,29.83,12,3,12,0.01
2013-1-10,40.2,34.2,26.1,32.0,26.0,18.0,97,71,52,30.49,29.82,32,6,32,0.01
2013-1-11,35.7,28.5,21.3,24.0,18.5,16.0,79,65,46,30.51,30.27,22,2,22,0.00
2013-1-12,38.5,35.0,29.2,38.0,30.9,21.0,100,84,70,30.28,30.11,11,2,12,0.00
2013-1-13,45.1,40.5,37.8,45.0,40.5,38.0,100,100,100,30.16,29.96,14,3,14,0.00
2013-1-14,51.4,43.1,34.1,51.0,40.3,24.0,100,90,66,30.19,29.85,17,4,17,0.02
2013-1-15,34.2,29.7,23.6,26.0,21.9,18.0,82,70,56,30.31,30.17,13,2,15,0.00
2013-1-16,32.6,28.0,24.4,33.0,25.8,18.0,100,90,70,30.27,29.75,10,3,10,0.00
2013-1-17,38.0,26.4,7.6,35.0,20.4,-6.0,100,78,42,30.12,29.73,25,3,25,0.16
2013-1-18,10.9,5.7,-1.1,0.0,-4.9,-13.0,70,55,39,30.36,30.09,19,3,20,0.00
2013-1-19,33.9,24.4,7.5,28.0,20.3,0.0,97,82,59,30.34,29.92,17,1,17,0.00
2013-1-20,45.7,35.4,19.4,40.0,28.5,4.0,100,76,46,29.92,29.42,27,4,28,0.20
2013-1-21,20.5,14.5,8.9,11.0,1.5,-6.0,87,50,34,30.00,29.77,23,3,24,0.00
2013-1-22,13.1,7.2,2.4,11.0,-1.7,-6.0,87,62,51,29.93,29.76,20,3,20,0.00
2013-1-23,4.0,-1.2,-7.4,-6.0,-12.1,-13.0,58,49,35,30.00,29.92,20,4,20,0.00
2013-1-24,7.3,-0.7,-7.9,-6.0,-12.0,-13.0,64,53,37,30.01,29.81,27,5,27,0.00
2013-1-25,17.3,7.5,-2.4,4.0,-2.4,-6.0,70,57,42,30.10,30.00,24,4,24,0.00
2013-1-26,14.9,8.6,2.4,0.0,-2.9,-6.0,68,55,38,30.05,29.92,20,4,20,0.00
2013-1-27,20.1,11.6,4.1,8.0,2.1,-6.0,70,58,49,30.34,30.02,24,6,24,0.00
2013-1-28,25.0,17.0,7.7,16.0,2.6,-6.0,86,51,25,30.36,30.06,15,2,16,0.00
2013-1-29,34.8,26.2,17.2,23.0,17.1,11.0,88,67,49,30.23,30.05,9,2,9,0.00
2013-1-30,51.8,41.9,29.3,52.0,41.4,23.0,100,98,75,30.18,29.49,27,7,28,0.21
2013-1-31,54.2,44.4,29.2,54.0,41.8,16.0,100,90,57,29.50,28.86,46,8,46,0.22